Location: Newark
(45.9456°N, 15.4064°E)
Time: 02:37:58
(UTC+00:00)

Courier 1B Rocket - Pass Details

Date: 23 January 2020
Orbit: 920 x 1202 km, 28.2° (Epoch: 25 February)

Event Time Altitude Azimuth Distance (km) Brightness Sun altitude
Rises 11:02:31 0° 214° (SSW) 3,862 9.0 24.5°
Reaches altitude 10° 11:07:33 10° 184° (S) 2,830 9.4 24.5°
Maximum altitude 11:09:44 12° 165° (SSE) 2,676 9.0 24.5°
Drops below altitude 10° 11:11:53 10° 146° (SE) 2,766 8.4 24.5°
Sets 11:16:37 0° 115° (ESE) 3,650 8.3 24.5°
